Weather History for KLSF - May, 2012

Change the Weather History Date:

Wednesday, May 2, 2012

  Actual Average (KCSG) Record (KCSG)
Temperature  
Mean Temperature 74 °F 69 °F  
Max Temperature 92 °F 81 °F 93 °F (1948)
Min Temperature 59 °F 57 °F 39 °F (1963)
Degree Days  
Heating Degree Days 0 1  
Month to date heating degree days 2  
Since 1 July heating degree days 2114  
Cooling Degree Days 10 5  
Month to date cooling degree days 10  
Year to date cooling degree days 114  
Growing Degree Days 24 (Base 50)    
Moisture  
Dew Point 64 °F    
Average Humidity 72    
Maximum Humidity 99    
Minimum Humidity 35    
Precipitation  
Precipitation 0.00 in 0.11 in 2.27 in (1964)
Month to date precipitation 0.21  
Year to date precipitation 17.51  
Sea Level Pressure  
Sea Level Pressure 30.07 in    
Wind  
Wind Speed 2 mph (SSE)    
Max Wind Speed 12 mph    
Max Gust Speed -    
Visibility 10 miles    
Events      
T = Trace of Precipitation, MM = Missing Value Source: NWS Daily Summary

Daily Weather History Graph

Daily Weather History Graph

Search for Another Location

Airport or City:

Trip Planner

Search our weather history database for the weather conditions in past years. The results will help you decide how hot, cold, wet, or windy it might be!

Date:

Astronomy

May. 02, 2012 Rise Set
Actual Time 6:52 AM EDT 8:22 PM EDT
Civil Twilight 6:25 AM EDT 8:48 PM EDT
Nautical Twilight 5:54 AM EDT 9:19 PM EDT
Astronomical Twilight 5:21 AM EDT 9:52 PM EDT
Moon 4:45 PM EDT (5/2) 4:08 AM EDT (5/2)
Length of Visible Light 14h 22m
Length of Day
13h 29m
Waxing Gibbous, 83% of the Moon is Illuminated
May 2
Waxing Gibbous
May 5
Full
May 12
Last Quarter
May 20
New
May 28
First Quarter

Hourly Weather History & Observations

Time (EDT) Temp. Heat Index Dew Point Humidity Pressure Visibility Wind Dir Wind Speed Gust Speed Precip Events Conditions
12:55 AM 64.2 °F - 61.5 °F 91% 30.05 in 10.0 mi Calm Calm - N/A   Clear
1:55 AM 63.3 °F - 61.3 °F 93% 30.05 in 10.0 mi South 3.5 mph - N/A   Clear
2:55 AM 63.5 °F - 61.7 °F 94% 30.04 in 10.0 mi Calm Calm - N/A   Clear
3:55 AM 63.7 °F - 62.1 °F 94% 30.04 in 10.0 mi Calm Calm - N/A   Clear
4:55 AM 60.6 °F - 60.1 °F 98% 30.05 in 10.0 mi Calm Calm - N/A   Clear
5:55 AM 59.7 °F - 59.2 °F 98% 30.06 in 10.0 mi NNW 3.5 mph - N/A   Clear
6:55 AM 61.0 °F - 60.8 °F 99% 30.09 in 10.0 mi Calm Calm - N/A   Clear
7:55 AM 64.2 °F - 64.0 °F 99% 30.12 in 10.0 mi Calm Calm - N/A   Clear
8:55 AM 73.4 °F - 66.2 °F 78% 30.13 in 10.0 mi SE 3.5 mph - N/A   Clear
9:55 AM 76.8 °F - 66.7 °F 71% 30.14 in 10.0 mi SSE 4.6 mph - N/A   Clear
10:55 AM 81.3 °F 84.1 °F 68.2 °F 64% 30.14 in 10.0 mi Variable 4.6 mph - N/A   Clear
11:55 AM 82.6 °F 85.3 °F 67.5 °F 60% 30.12 in 10.0 mi Calm Calm - N/A   Partly Cloudy
12:55 PM 85.8 °F 88.2 °F 66.4 °F 52% 30.11 in 10.0 mi Variable 3.5 mph - N/A   Clear
1:55 PM 88.7 °F 91.1 °F 66.2 °F 47% 30.09 in 10.0 mi South 8.1 mph - N/A   Scattered Clouds
2:55 PM 89.2 °F 90.6 °F 64.0 °F 43% 30.07 in 10.0 mi ESE 11.5 mph - N/A   Clear
3:55 PM 90.7 °F 91.3 °F 62.6 °F 39% 30.04 in 10.0 mi Variable 5.8 mph - N/A   Clear
4:55 PM 90.7 °F 90.1 °F 59.7 °F 35% 30.02 in 10.0 mi SSE 9.2 mph - N/A   Clear
5:55 PM 89.4 °F 89.5 °F 61.2 °F 39% 30.02 in 10.0 mi SSE 8.1 mph - N/A   Clear
6:55 PM 86.2 °F 87.6 °F 64.2 °F 48% 30.03 in 10.0 mi SSE 8.1 mph - N/A   Clear
7:55 PM 78.3 °F - 68.4 °F 71% 30.03 in 10.0 mi Calm Calm - N/A   Clear
8:55 PM 74.3 °F - 66.6 °F 77% 30.04 in 10.0 mi Calm Calm - N/A   Clear
9:55 PM 71.6 °F - 65.7 °F 81% 30.06 in 7.0 mi Calm Calm - N/A   Clear
10:55 PM 68.9 °F - 65.1 °F 88% 30.06 in 10.0 mi Calm Calm - N/A   Clear
11:55 PM 69.4 °F - 63.0 °F 80% 30.08 in 10.0 mi Variable 3.5 mph - N/A   Clear